Regional Weather Roundup
Issued by NWS

Home | Current Version | Previous Version | Graphics & Text | Print | Product List | Glossary On
Versions: 1 2 3 4 5 6 7 8 9 10 11 12 13 14 15 16 17 18 19 20 21 22 23 24 25 26 27 28 29 30 31 32 33 34 35 36 37 38 39 40 41 42 43 44 45 46 47 48 49 50
000
ASUS43 KTOP 271908
RWRKS

WEATHER ROUNDUP FOR KANSAS
NATIONAL WEATHER SERVICE GOODLAND KS
100 PM CST TUE JAN 27 2015

NOTE:  "FAIR" INDICATES FEW OR NO CLOUDS BELOW 12,000 FEET WITH NO
SIGNIFICANT WEATHER AND/OR OBSTRUCTIONS TO VISIBILITY.

KSZ001>006-013>018-027>032-041>047-272000-
NORTHWEST KANSAS

CITY           SKY/WX    TMP DP  RH WIND       PRES   REMARKS
GOODLAND       SUNNY     79  22  12 SW13      30.06F
HAYS           SUNNY     72  32  23 W7        30.03F
HILL CITY      SUNNY     75  28  17 W9        30.01F
RUSSELL        SUNNY     65  34  31 S9        30.01F
$$

KSZ061>065-074>080-084>089-272000-
SOUTHWEST KANSAS

CITY           SKY/WX    TMP DP  RH WIND       PRES   REMARKS
DODGE CITY     SUNNY     79  24  13 SW16      30.08F
ELKHART          N/A     74  29  19 SW13        N/A
GARDEN CITY    SUNNY     75  25  15 SW12      30.08F
GREAT BEND     SUNNY     73  36  25 SW12      30.03F
LIBERAL        SUNNY     73  37  27 SW17      30.14F
PRATT          SUNNY     75  32  20 SW15      30.07F
$$

KSZ066>073-081>083-090>101-272000-
SOUTHEAST KANSAS

CITY           SKY/WX    TMP DP  RH WIND       PRES   REMARKS
CHANUTE        SUNNY     58  35  42 SE7       30.13F
COFFEYVILLE    SUNNY     61  35  37 VRB5      30.13F
HUTCHINSON     SUNNY     70  36  28 S13       30.05F
MEDICINE LODGE   N/A     72  33  24 SW10      30.06F
NEWTON         SUNNY     66  32  28 S16       30.09F
PARSONS        SUNNY     60  36  40 VRB5      30.14F
WICHITA INTL   MOSUNNY   66  34  30 S16       30.07F
WICHITA JABRA  SUNNY     66  33  29 S15       30.08F
WICHITA MCCONL SUNNY     67  35  30 S14       30.08F
WINFIELD       SUNNY     68  31  25 S14       30.11F
$$

KSZ007>012-019>026-033>040-048>060-102>105-272000-
NORTHEAST KANSAS

CITY           SKY/WX    TMP DP  RH WIND       PRES   REMARKS
CONCORDIA      SUNNY     63  34  33 S15       30.03F
EMPORIA        SUNNY     59  34  39 SE10      30.09F
LAWRENCE       SUNNY     52  33  48 SE5       30.13F
MANHATTAN      SUNNY     62  34  35 S14       30.06F
MARYSVILLE     SUNNY     57  34  41 S10G16    30.07F
OLATHE IND     SUNNY     52  34  50 E7        30.13F
OLATHE EXE     SUNNY     52  32  46 VRB5      30.12F
SALINA         SUNNY     67  35  30 S10       30.04F
TOPEKA BILLARD SUNNY     56  33  42 E8        30.12F
TOPEKA FORBES  SUNNY     58  33  39 SE8       30.11F
$$


USA.gov is the U.S. government's official web portal to all federal, state and local government web resources and services.